Location: Unspecified
(22.6800°N, 112.2000°E)
Time: 09:28:00
(UTC+08:00)

S-56A Canister/Altair - Pass Details

Date: 01 August 2021
Orbit: 632 x 2500 km, 38.9° (Epoch: 27 September)

Event Time Altitude Azimuth Distance (km) Brightness Sun altitude
Rises 17:16:02 0° 282° (WNW) 5,782 13.4 25.1°
Reaches altitude 10° 17:20:02 10° 290° (WNW) 4,943 13.5 24.2°
Maximum altitude 17:33:36 41° 356° (N) 3,273 11.1 21.1°
Drops below altitude 10° 17:46:52 10° 63° (ENE) 4,841 11.2 18.1°
Sets 17:50:45 0° 71° (ENE) 5,656 11.5 17.3°
